Cloud_Cover
0 0 0 0 0 3 13 18 8 10 24 12 14 3 15 6 0 0 0 0 0 0 0 0 0 0 2 0 0 35 100 84 100 100 100 100 100 100 100 100 100 100 100 65 1
0 0 0 0 0 5 14 17 11 8 8 23 14 7 24 3 1 0 0 0 0 0 0 0 0 0 0 0 50 33 62 100 100 100 100 100 100 100 100 96 100 100 69 91 4
0 0 0 0 0 1 14 8 12 1 0 14 26 22 13 0 0 0 0 0 0 0 0 0 0 0 0 0 0 0 4 33 100 100 100 100 100 100 100 100 100 59 13 7 5
0 0 0 0 0 0 3 2 0 0 6 23 24 12 0 0 0 0 0 0 0 0 0 0 0 0 0 0 0 0 1 97 100 100 100 100 100 100 100 100 100 100 100 7 5
0 0 0 0 0 0 1 0 0 0 26 20 3 2 0 0 0 0 0 0 0 0 0 0 0 0 0 0 0 0 3 96 97 84 100 100 99 100 100 100 100 100 74 0 0
0 0 4 0 0 0 0 0 0 0 0 0 0 0 1 0 0 0 0 0 0 0 0 0 0 0 0 0 0 0 2 100 99 100 95 100 99 55 97 100 100 100 12 0 0
0 0 0 6 0 0 0 0 0 0 0 0 0 0 0 0 0 0 0 0 0 0 0 0 0 0 0 0 0 0 0 7 97 89 100 100 100 84 26 100 100 100 88 88 0
0 0 1 0 0 0 0 0 0 0 0 0 1 0 0 0 0 0 0 0 0 0 0 0 0 0 0 0 0 0 0 0 5 74 100 52 100 80 59 99 100 95 97 100 98
3 1 4 0 0 2 1 0 0 0 0 0 0 0 0 0 0 0 0 0 0 0 0 0 0 0 0 0 0 0 0 0 0 5 93 33 92 15 86 98 97 100 100 100 100
0 1 0 0 0 0 3 0 0 0 0 0 0 0 0 0 0 0 0 0 0 0 0 0 0 0 0 0 0 0 0 0 0 0 0 6 5 4 8 95 62 100 94 84 100
0 0 0 0 0 0 3 0 0 0 0 0 0 0 0 0 0 0 0 0 0 0 0 0 0 0 0 0 0 0 0 0 0 0 0 0 1 0 3 1 5 100 100 100 94
0 0 0 0 0 2 25 0 0 0 0 0 0 0 0 0 0 0 0 0 0 0 0 0 0 0 0 0 0 0 0 0 0 0 0 0 0 1 14 26 71 100 100 100 100
0 0 0 0 3 1 0 0 0 0 0 0 0 0 0 0 0 0 0 0 0 0 0 0 0 0 0 0 0 0 0 0 0 0 0 0 0 5 39 0 96 100 100 100 100
0 0 0 8 0 0 0 0 0 0 0 0 0 0 0 0 0 0 0 0 0 0 0 0 0 0 0 0 0 0 0 0 0 0 0 0 0 4 94 33 100 100 100 100 100
0 0 0 12 0 0 0 0 0 0 0 0 0 0 0 0 0 0 0 0 0 0 0 0 0 0 0 0 0 0 0 0 0 0 0 0 0 0 2 100 100 100 100 100 100
0 0 4 0 0 0 0 0 0 1 0 0 0 0 0 0 0 0 0 0 0 0 0 0 0 0 0 0 0 0 0 0 0 0 0 0 0 0 13 100 71 100 100 100 100
0 0 46 0 0 0 0 3 5 59 0 0 0 0 0 0 0 0 0 0 0 0 0 0 0 0 0 0 0 0 0 0 0 0 0 0 0 0 4 100 42 100 100 100 100
0 0 0 0 0 0 0 4 87 35 43 28 0 0 0 0 0 0 0 0 0 0 0 0 0 0 0 0 0 0 0 0 0 0 0 0 0 0 0 93 100 98 26 51 100
0 0 0 0 0 0 0 4 79 66 96 92 3 0 2 0 0 0 0 0 0 0 0 0 0 0 0 0 3 0 0 0 0 0 0 0 0 0 0 2 100 100 100 92 100
0 0 0 0 0 0 0 83 1 0 0 2 4 0 66 94 2 0 12 1 0 0 0 0 0 0 0 0 1 0 0 3 0 0 0 0 0 0 0 0 57 100 100 99 70
2 1 0 0 0 1 61 92 5 0 0 0 0 0 15 5 5 3 84 0 0 0 0 0 0 0 0 0 0 15 10 58 93 32 0 0 0 0 66 0 2 0 96 96 91
0 0 0 0 0 68 6 13 5 0 0 0 0 0 0 0 0 4 1 0 0 0 0 0 0 0 0 0 34 54 9 56 100 70 68 12 0 41 22 15 0 0 75 50 100
0 2 0 1 36 9 2 0 0 0 0 0 0 0 0 0 0 0 3 1 0 0 0 0 0 0 0 0 0 86 16 99 100 52 5 5 1 1 99 88 10 11 100 81 78
2 5 5 5 3 5 4 5 4 3 29 17 5 4 0 2 3 3 1 5 2 0 0 0 0 0 0 0 0 0 35 100 57 98 47 5 0 99 98 100 100 4 1 18 100
1 5 93 100 79 52 98 70 5 5 4 4 3 22 12 10 8 5 1 0 0 0 0 0 0 0 0 0 0 0 0 64 100 18 46 36 72 68 83 64 93 14 36 63 99
0 0 0 0 98 100 100 100 48 92 86 100 73 2 0 5 1 0 0 0 0 0 5 5 0 0 0 0 0 0 0 0 1 99 7 84 100 5 26 97 100 65 24 78 24
0 0 4 2 0 0 0 1 12 3 3 51 39 24 6 4 0 0 0 0 0 0 0 1 4 0 0 0 1 0 0 0 0 0 100 100 100 77 43 7 100 48 87 78 7